TimeIST,TemperatureF,Dew PointF,Humidity,Sea Level PressureIn,VisibilityMPH,Wind Direction,Wind SpeedMPH,Gust SpeedMPH,PrecipitationIn,Events,Conditions,WindDirDegrees,DateUTC
12:00 AM,80.6,39.2,23,29.89,1.6,Calm,Calm,-,N/A,,Haze,0,2013-03-20 18:30:00
2:00 AM,77.0,41.0,28,29.86,1.6,Variable,1.2,-,N/A,,Haze,0,2013-03-20 20:30:00
2:30 AM,76,42,20,29.80,1,East,4.6,,,,Haze,90,2013-03-20 21:00:00
3:00 AM,71.6,44.6,38,29.86,1.6,Variable,2.3,-,N/A,,Haze,0,2013-03-20 21:30:00
4:00 AM,75.2,48.2,38,29.86,1.6,ENE,5.8,-,N/A,,Haze,60,2013-03-20 22:30:00
5:00 AM,73.4,48.2,41,29.86,1.6,SE,3.5,-,N/A,,Haze,140,2013-03-20 23:30:00
5:30 AM,71,50,37,29.81,1,,2.3,,,,Haze,,2013-03-21 00:00:00
5:30 AM,69.8,48.2,46,29.86,1.6,Calm,Calm,-,N/A,,Haze,0,2013-03-21 00:00:00
6:00 AM,69.8,48.2,46,29.86,1.6,Calm,Calm,-,N/A,,Haze,0,2013-03-21 00:30:00
6:30 AM,69.8,48.2,46,29.89,1.6,Calm,Calm,-,N/A,,Haze,0,2013-03-21 01:00:00
7:00 AM,68.0,50.0,52,29.89,1.2,Calm,Calm,-,N/A,,Haze,0,2013-03-21 01:30:00
8:00 AM,75.2,50.0,41,29.92,1.2,Calm,Calm,-,N/A,,Smoke,0,2013-03-21 02:30:00
8:30 AM,76,53,35,29.86,1,Calm,Calm,,,,Smoke,,2013-03-21 03:00:00
9:00 AM,80.6,50.0,34,29.95,1.2,Calm,Calm,-,N/A,,Smoke,0,2013-03-21 03:30:00
10:00 AM,84.2,48.2,29,29.95,1.2,SSE,4.6,-,N/A,,Smoke,160,2013-03-21 04:30:00
12:00 PM,87.8,48.2,25,29.92,2.5,Calm,Calm,-,N/A,,Haze,0,2013-03-21 06:30:00
1:00 PM,91.4,48.2,23,29.89,2.5,Variable,3.5,-,N/A,,Haze,0,2013-03-21 07:30:00
2:00 PM,91.4,44.6,20,29.86,2.5,SW,5.8,-,N/A,,Haze,230,2013-03-21 08:30:00
3:30 PM,93.2,37.4,14,29.83,2.5,Variable,4.6,-,N/A,,Haze,0,2013-03-21 10:00:00
4:00 PM,93.2,35.6,13,29.80,2.5,Variable,4.6,-,N/A,,Haze,0,2013-03-21 10:30:00
5:00 PM,93.2,35.6,13,29.80,2.5,Variable,8.1,-,N/A,,Haze,0,2013-03-21 11:30:00
5:30 PM,91,40,9,29.73,1,,3.5,,,,Haze,,2013-03-21 12:00:00
6:00 PM,91.4,37.4,15,29.80,2.5,Variable,6.9,-,N/A,,Haze,0,2013-03-21 12:30:00
6:30 PM,89.6,41.0,18,29.83,2.2,Variable,3.5,-,N/A,,Haze,0,2013-03-21 13:00:00
8:00 PM,89.6,46.4,22,29.83,1.9,NE,4.6,-,N/A,,Haze,50,2013-03-21 14:30:00
8:30 PM,84,45,16,29.76,1,NE,4.6,,,,Haze,50,2013-03-21 15:00:00
9:00 PM,84.2,46.4,27,29.86,1.9,Variable,6.9,-,N/A,,Haze,0,2013-03-21 15:30:00
10:00 PM,82.4,48.2,30,29.86,1.9,NE,5.8,-,N/A,,Haze,50,2013-03-21 16:30:00
11:00 PM,80.6,48.2,32,29.86,1.9,NE,5.8,-,N/A,,Haze,50,2013-03-21 17:30:00
11:30 PM,80,47,21,29.78,1,NE,2.3,,,,Haze,50,2013-03-21 18:00:00